Weather Service Report


815 
ASUS45 KBOI 222210
RWRID 

IDAHO REGIONAL WEATHER ROUNDUP
NATIONAL WEATHER SERVICE BOISE ID
300 PM MST SUN JAN 22 2017

NOTE: "FAIR" INDICATES FEW OR NO CLOUDS BELOW 12000 FEET
WITH NO SIGNIFICANT WEATHER AND/OR OBSTRUCTIONS TO VISIBILITY

IDZ012-014-222300-
SOUTHWEST IDAHO

  
CITY           SKY/WX    TMP DP  RH WIND       PRES   REMARKS
BOISE          CLOUDY    40  30  67 SE17G29   29.61S WCI  31          
CALDWELL       CLOUDY    38  31  76 SE22      29.61F WCI  27          
MOUNTAIN HOME  PTSUNNY   37  31  79 E23G30    29.62S WCI  26          
$$

IDZ016-017-222300-
SOUTHCENTRAL IDAHO

  
CITY           SKY/WX    TMP DP  RH WIND       PRES   REMARKS
BURLEY         FLURRIES  35  28  75 S14       29.67F WCI  26          
JEROME         CLOUDY    36  30  79 E10       29.67F WCI  28          
TWIN FALLS     CLOUDY    38  25  59 S30G41    29.57F WCI  26          
$$

IDZ019>023-222300-
SOUTHEAST IDAHO

  
CITY           SKY/WX    TMP DP  RH WIND       PRES   REMARKS
IDAHO FALLS    CLOUDY    34  22  61 S10       29.77F WCI  26          
POCATELLO      CLOUDY    34  24  67 S21       29.77S WCI  22          
REXBURG        CLOUDY    32  22  66 SW7       29.76S WCI  26          
$$

IDZ006-010-011-018-031-032-222300-
CENTRAL IDAHO MOUNTAINS

  
CITY           SKY/WX    TMP DP  RH WIND       PRES   REMARKS
MCCALL         LGT SNOW  29  26  89 S10       29.54F VSB 3/4 WCI  20  
HAILEY         LGT SNOW  28  27  93 CALM      29.73F VSB 1            
STANLEY          N/A     27  21  78 S15G28    29.58S WCI  15          
SALMON         CLOUDY    19  14  79 CALM      29.69F                  
CHALLIS        CLOUDY    17  15  92 CALM      29.66F                  
$$

IDZ002-004-006-007-026-222300-
NORTHERN IDAHO

  
CITY           SKY/WX    TMP DP  RH WIND       PRES   REMARKS
LEWISTON       CLOUDY    38  31  76 E7        29.58F WCI  33          
LOWELL           N/A     34  31  88 N3        29.65S                  
COEUR D'ALENE  CLOUDY    38  32  79 N14       29.57F WCI  30          
MULLAN PASS    CLOUDY    25  22  88 SE9       29.53F WCI  15          
$$
  

Return to Home page


Western Regional Climate Center, wrcc@dri.edu